Hourly Data Report for July 07, 2016

OTTAWA INTL A
ONTARIO

45°19'00.000" N
75°40'00.000" W
114.90 m
6106001
71628
YOW

Download Data

Hourly Data (July 2016)
Hourly Data Report for July 7, 2016
TIME
LST
Temp Definition
°C
Dew Point Definition
°C
Rel Hum Definition
%
Precip. Amount Definition
mm

Wind Dir Definition
10's deg

Wind Spd Definition
km/h
Visibility Definition
km
Stn Press Definition
kPa
Hmdx Definition


Wind Chill Definition


Weather Definition


00:00 22.6 19.0 80   10 12 24.1 99.44 29   LegendNANA
01:00 22.4 19.2 82   18 8 24.1 99.45 29   Cloudy
02:00 22.1 19.5 85   6 8 24.1 99.45 29   LegendNANA
03:00 21.6 19.2 86   10 8 24.1 99.38 29   LegendNANA
04:00 21.3 18.9 86   6 12 24.1 99.37 28   Cloudy
05:00 20.5 18.8 90   6 16 24.1 99.36 27   LegendNANA
06:00 20.1 18.3 89   8 16 16.1 99.34 26   LegendNANA
07:00 21.7 18.9 84   10 11 16.1 99.30 28   Mostly Cloudy
08:00 23.0 18.8 77   12 6 16.1 99.34 30   LegendNANA
09:00 25.0 19.3 70   2 4 24.1 99.34 32   LegendNANA
10:00 26.3 20.0 68   30 10 24.1 99.36 34   Mostly Cloudy
11:00 27.2 19.7 63   29 21 24.1 99.39 35   LegendNANA
12:00 27.8 19.8 61   29 22 24.1 99.42 35   LegendNANA
13:00 28.9 19.4 56   30 26 24.1 99.35 36   Mostly Cloudy
14:00 29.7 19.6 54   28 26 24.1 99.34 37   LegendNANA
15:00 29.3 19.2 54   31 22 24.1 99.38 36   LegendNANA
16:00 29.4 18.1 50   34 15 24.1 99.44 35   Mostly Cloudy
17:00 28.7 18.7 54   1 20 24.1 99.44 35   LegendNANA
18:00 26.6 17.6 57   2 18 24.1 99.49 32   LegendNANA
19:00 26.3 17.3 57   3 15 24.1 99.53 32   Mostly Cloudy
20:00 24.1 17.5 66   6 8 24.1 99.56 30   LegendNANA
21:00 22.5 17.5 73   6 7 24.1 99.63 28   LegendNANA
22:00 21.5 18.0 80   7 13 24.1 99.65 28   Mainly Clear
23:00 20.4 18.4 88   9 11 24.1 99.69 27   LegendNANA

Notes on Data Quality.

Legend

  • E = Estimated
  • M = Missing
  • NA = Not Available*
  • [empty] = Indicates an unobserved value
Date modified: